Terminal Aerodrome Forecast
Issued by NWS Mt. Holly, NJ

Home | Current Version | Previous Version | Text Only | Print | Product List | Glossary On
Versions: 1 2 3 4 5 6 7 8 9 10 11 12 13 14 15 16 17 18 19 20 21 22 23 24 25 26 27 28 29 30 31 32 33 34 35 36 37 38 39 40 41 42 43 44 45 46 47 48 49 50
000
FTUS41 KPHI 061745
TAFABE
TAF
KABE 061745Z 0618/0718 16007KT P6SM VCSH OVC070
      TEMPO 0620/0623 3SM TSRA OVC040CB
     FM070000 14005KT P6SM VCSH BKN040
     FM070500 14003KT 4SM BR SCT006 BKN150
     FM070700 16003KT 2SM BR OVC006
     FM071500 23004KT 6SM BR BKN015=

USA.gov is the U.S. government's official web portal to all federal, state and local government web resources and services.